Regional Weather Roundup
Issued by NWS Bismarck, ND

Home | Current Version | Previous Version | Text Only | Print | Product List | Glossary On
Versions: 1 2 3 4 5 6 7 8 9 10 11 12 13 14 15 16 17 18 19 20 21 22 23 24 25 26 27 28 29 30 31 32 33 34 35 36 37 38 39 40 41 42 43 44 45 46 47 48 49 50
000
ASUS43 KBIS 290220
RWRBIS

NWR BROADCAST TEXT
NATIONAL WEATHER SERVICE BISMARCK ND
900 PM CDT MON JUL 28 2014

NOTE: "FAIR" INDICATES FEW OR NO CLOUDS BELOW 12,000 FEET WITH NO
SIGNIFICANT WEATHER AND/OR OBSTRUCTIONS TO VISIBILITY.


CITY           SKY/WX    TMP DP  RH WIND       PRES   REMARKS
WILLISTON      CLEAR     77  51  40 E7        30.20S
MINOT          CLEAR     68  57  68 NE3       30.22S
MINOT AFB      CLEAR     69  57  66 SE3       30.21F
BISMARCK       CLEAR     69  53  56 E6        30.23S
DICKINSON      CLEAR     67  56  67 E6        30.23S
GARRISON         N/A     68  59  73 SE3       30.23S
HETTINGER ARPT PTCLDY    69  52  54 E10       30.25S
JAMESTOWN      CLEAR     64  54  69 NW5       30.21F
CARRINGTON     FAIR      64  57  77 CALM      30.23F
CROSBY           N/A     66  64  94 E6        30.22S
HARVEY         FAIR      64  55  72 CALM      30.23S HAZE
HAZEN          FAIR      66  54  63 SE3       30.23F
LINTON         FAIR      66  54  63 CALM      30.24S
MANDAN         FAIR      66  52  59 E3        30.25S
RUGBY          FAIR      64  57  77 CALM      30.21F
STANLEY        FAIR      66  63  88 SE7       30.24S
TIOGA          CLOUDY    66  66 100 SE6       30.26S
WATFORD CITY   FAIR      70  57  64 SE8       30.20S
$$

CITY           SKY/WX    TMP DP  RH WIND       PRES   REMARKS
GRAND FORKS    PTCLDY    66  60  81 N3        30.18S
GRAND FORKS AF CLEAR     65  59  79 N3        30.19F
DEVILS LAKE    CLEAR     66  54  63 W6        30.20S
FARGO          CLEAR     68  55  63 W5        30.18S
CANDO          FAIR      66  54  63 CALM      30.22F
CAVALIER       FAIR      64  57  77 CALM      30.19S
GRAFTON        FAIR      66  55  68 NW5       30.18S
GWINNER        CLEAR     63  55  77 NW3       30.22S
LANGDON        FAIR      63  57  82 CALM      30.21F
ROLLA          FAIR      64  55  72 NW3       30.24S
WALHALLA         N/A     66  59  77 CALM        N/A
$$

CITY           SKY/WX    TMP DP  RH WIND       PRES   REMARKS
ABERDEEN       CLEAR     65  54  67 E3        30.22S
MOBRIDGE       CLEAR     67  53  61 NE7       30.21S
BUFFALO          N/A     71  54  54 E9        30.18S
RAPID CITY     PTCLDY    70  54  56 E8        30.23S
GLASGOW        CLEAR     83  46  27 E9        30.17S
SIDNEY         CLEAR     77  52  41 E7        30.20F
WOLF POINT     CLEAR     83  47  28 E12       30.18S
GLENDIVE       PTCLDY    77  48  36 NE7       30.21S
MILES CITY     CLEAR     82  46  28 NE9       30.18R
BAKER          CLEAR     76  51  41 E10       30.23S
$$

CITY           SKY/WX    TMP DP  RH WIND       PRES   REMARKS
BILLINGS       CLOUDY    84  47  27 NE16      30.17R
GREAT FALLS    MOCLDY    84  42  22 N7        30.12S
REGINA         PTCLDY    73  59  60 N5        30.21F
ESTEVAN        MOCLDY    70  61  73 SE3       30.23S
$$




USA.gov is the U.S. government's official web portal to all federal, state and local government web resources and services.